Tomahawk, WI

8:06 AM CDT on September 21, 2017 (GMT -0500)
Tomahawk

Weather History for KTKV - February, 2013

Change the Weather History Date:

Tuesday, February 19, 2013

  Actual Average (KRHI) Record (KRHI)
Temperature  
Mean Temperature 14 °F -  
Max Temperature 26 °F 31 °F 58 °F (2017)
Min Temperature 3 °F 7 °F -32 °F (1942)
Degree Days  
Heating Degree Days 50    
Moisture  
Dew Point 2 °F    
Average Humidity 74    
Maximum Humidity 93    
Minimum Humidity 57    
Precipitation  
Precipitation 0.00 in - - ()
Sea Level Pressure  
Sea Level Pressure 29.77 in    
Wind  
Wind Speed 13 mph (NW)    
Max Wind Speed 21 mph    
Max Gust Speed 28 mph    
Visibility 7 miles    
Events Snow    
Averages and records for this station are not official NWS values.
T = Trace of Precipitation, MM = Missing Value Source: NWS Daily Summary

Daily Weather History Graph

Daily Weather History Graph

Search for Another Location

Airport or City:

Trip Planner

Search our weather history database for the weather conditions in past years. The results will help you decide how hot, cold, wet, or windy it might be!

Date:

Astronomy

Feb. 19, 2013 Rise Set
Actual Time 6:54 AM CST 5:32 PM CST
Civil Twilight 6:23 AM CST 6:02 PM CST
Nautical Twilight 5:49 AM CST 6:37 PM CST
Astronomical Twilight 5:15 AM CST 7:11 PM CST
Moon 11:55 AM CST (2/19) 2:35 AM CST (2/19)
Length of Visible Light 11h 38m
Length of Day
10h 38m
Waxing Gibbous, 67% of the Moon is Illuminated
Feb 19
Waxing Gibbous
Feb 25
Full
Mar 4
Last Quarter
Mar 11
New
Mar 19
First Quarter

Hourly Weather History & Observations

Time (CST) Temp. Windchill Dew Point Humidity Pressure Visibility Wind Dir Wind Speed Gust Speed Precip Events Conditions
12:15 AM 26.6 °F 16.8 °F 23.0 °F 86% 29.45 in 7.0 mi NW 10.4 mph - N/A   Overcast
12:35 AM 26.6 °F 19.1 °F 23.0 °F 86% 29.46 in 5.0 mi WNW 6.9 mph - N/A   Overcast
12:55 AM 26.6 °F 16.2 °F 23.0 °F 86% 29.47 in 4.0 mi WNW 11.5 mph 18.4 mph N/A   Overcast
1:15 AM 23.0 °F 10.6 °F 19.4 °F 86% 29.48 in 7.0 mi WNW 13.8 mph 26.5 mph N/A   Overcast
1:35 AM 21.2 °F 8.9 °F 19.4 °F 93% 29.49 in 7.0 mi WNW 12.7 mph 18.4 mph N/A Snow Light Snow
1:55 AM 21.2 °F 8.9 °F 17.6 °F 86% 29.49 in 5.0 mi WNW 12.7 mph 24.2 mph N/A Snow Light Snow
2:15 AM 21.2 °F 6.4 °F 17.6 °F 86% 29.49 in 3.0 mi WNW 18.4 mph 24.2 mph N/A Snow Light Snow
2:35 AM 19.4 °F 5.5 °F 15.8 °F 86% 29.49 in 7.0 mi NW 15.0 mph 19.6 mph N/A Snow Light Snow
2:55 AM 19.4 °F 3.6 °F 14.0 °F 80% 29.50 in 7.0 mi NW 19.6 mph - N/A Snow Light Snow
3:15 AM 17.6 °F 2.7 °F 14.0 °F 86% 29.51 in 4.0 mi WNW 16.1 mph 25.3 mph N/A Snow Light Snow
3:35 AM 17.6 °F 1.7 °F 12.2 °F 79% 29.51 in 7.0 mi NW 18.4 mph 27.6 mph N/A Snow Light Snow
3:55 AM 17.6 °F 2.7 °F 10.4 °F 73% 29.52 in 7.0 mi NW 16.1 mph 23.0 mph N/A Snow Light Snow
4:15 AM 15.8 °F 1.4 °F 10.4 °F 79% 29.54 in 5.0 mi NW 13.8 mph 24.2 mph N/A Snow Light Snow
4:35 AM 14.0 °F -1.4 °F 8.6 °F 79% 29.55 in 5.0 mi NW 15.0 mph 21.9 mph N/A Snow Light Snow
4:55 AM 14.0 °F -2.0 °F 8.6 °F 79% 29.56 in 5.0 mi WNW 16.1 mph - N/A Snow Light Snow
5:15 AM 12.2 °F -3.7 °F 6.8 °F 79% 29.57 in 7.0 mi NW 15.0 mph 24.2 mph N/A Snow Light Snow
5:35 AM 12.2 °F -6.3 °F 5.0 °F 73% 29.59 in 7.0 mi NW 20.7 mph 27.6 mph N/A Snow Light Snow
5:55 AM 12.2 °F -4.3 °F 5.0 °F 73% 29.60 in 10.0 mi NW 16.1 mph 23.0 mph N/A   Overcast
6:15 AM 10.4 °F -4.1 °F 3.2 °F 73% 29.61 in 10.0 mi NW 11.5 mph 18.4 mph N/A   Overcast
6:35 AM 10.4 °F -5.4 °F 5.0 °F 79% 29.62 in 3.0 mi WNW 13.8 mph 18.4 mph N/A Snow Light Snow
6:55 AM 10.4 °F -6.0 °F 3.2 °F 73% 29.64 in 5.0 mi WNW 15.0 mph 20.7 mph N/A Snow Light Snow
7:15 AM 8.6 °F -8.3 °F 1.4 °F 73% 29.65 in 4.0 mi WNW 15.0 mph 23.0 mph N/A Snow Light Snow
7:35 AM 8.6 °F -7.0 °F 1.4 °F 73% 29.66 in 4.0 mi NW 12.7 mph 20.7 mph N/A Snow Light Snow
7:55 AM 6.8 °F -10.0 °F 1.4 °F 79% 29.67 in 3.0 mi NW 13.8 mph 24.2 mph N/A Snow Light Snow
8:15 AM 6.8 °F -11.8 °F 1.4 °F 79% 29.68 in 2.5 mi WNW 17.3 mph 24.2 mph N/A Snow Light Snow
8:35 AM 6.8 °F -10.7 °F -0.4 °F 72% 29.69 in 2.5 mi NW 15.0 mph 20.7 mph N/A Snow Light Snow
8:55 AM 5.0 °F -13.6 °F 1.4 °F 85% 29.70 in 1.5 mi NW 16.1 mph 19.6 mph N/A Snow Light Snow
9:15 AM 5.0 °F -13.0 °F -0.4 °F 78% 29.71 in 1.5 mi WNW 15.0 mph 25.3 mph N/A Snow Light Snow
9:35 AM 5.0 °F -13.0 °F -0.4 °F 78% 29.72 in 1.8 mi WNW 15.0 mph 21.9 mph N/A Snow Light Snow
9:55 AM 5.0 °F -12.3 °F -0.4 °F 78% 29.73 in 2.0 mi WNW 13.8 mph 20.7 mph N/A Snow Light Snow
10:15 AM 5.0 °F -15.7 °F -2.2 °F 72% 29.74 in 2.0 mi WNW 20.7 mph 27.6 mph N/A Snow Light Snow
10:35 AM 5.0 °F -13.0 °F -2.2 °F 72% 29.74 in 2.0 mi WNW 15.0 mph 23.0 mph N/A   Haze
10:55 AM 5.0 °F -11.6 °F -2.2 °F 72% 29.75 in 1.8 mi WNW 12.7 mph 25.3 mph N/A Snow Light Snow
11:15 AM 5.0 °F -12.3 °F -2.2 °F 72% 29.76 in 4.0 mi WNW 13.8 mph 19.6 mph N/A   Haze
11:35 AM 5.0 °F -14.2 °F -4.0 °F 66% 29.77 in 5.0 mi WNW 17.3 mph 24.2 mph N/A   Haze
11:55 AM 5.0 °F -12.3 °F -4.0 °F 66% 29.78 in 7.0 mi NW 13.8 mph 24.2 mph N/A   Overcast
12:15 PM 6.8 °F -11.8 °F -4.0 °F 61% 29.79 in 10.0 mi NW 17.3 mph 25.3 mph N/A   Overcast
12:35 PM 8.6 °F -7.0 °F -4.0 °F 57% 29.79 in 10.0 mi WNW 12.7 mph 23.0 mph N/A   Overcast
12:55 PM 8.6 °F -8.3 °F -4.0 °F 57% 29.80 in 7.0 mi NW 15.0 mph 25.3 mph N/A   Overcast
1:15 PM 8.6 °F -8.9 °F -4.0 °F 57% 29.81 in 10.0 mi NW 16.1 mph 24.2 mph N/A   Mostly Cloudy
1:35 PM 8.6 °F -7.7 °F -2.2 °F 62% 29.82 in 10.0 mi WNW 13.8 mph 21.9 mph N/A   Overcast
1:55 PM 8.6 °F -8.9 °F -4.0 °F 57% 29.82 in 10.0 mi NW 16.1 mph 23.0 mph N/A   Mostly Cloudy
2:15 PM 8.6 °F -7.0 °F -2.2 °F 62% 29.83 in 10.0 mi WNW 12.7 mph 24.2 mph N/A   Mostly Cloudy
2:35 PM 8.6 °F -8.3 °F -2.2 °F 62% 29.84 in 10.0 mi NW 15.0 mph 24.2 mph N/A   Overcast
2:55 PM 8.6 °F -7.7 °F -2.2 °F 62% 29.86 in 10.0 mi NW 13.8 mph 20.7 mph N/A   Overcast
3:15 PM 8.6 °F -8.3 °F -2.2 °F 62% 29.88 in 10.0 mi WNW 15.0 mph 21.9 mph N/A   Overcast
3:35 PM 6.8 °F -11.3 °F -4.0 °F 61% 29.90 in 10.0 mi NW 16.1 mph 23.0 mph N/A   Overcast
3:55 PM 6.8 °F -9.3 °F -4.0 °F 61% 29.91 in 10.0 mi NW 12.7 mph 17.3 mph N/A   Overcast
4:15 PM 5.0 °F -10.0 °F -4.0 °F 66% 29.93 in 10.0 mi NW 10.4 mph 18.4 mph N/A   Overcast
4:35 PM 5.0 °F -10.8 °F -4.0 °F 66% 29.94 in 10.0 mi WNW 11.5 mph 18.4 mph N/A   Overcast
4:55 PM 5.0 °F -11.6 °F -2.2 °F 72% 29.95 in 7.0 mi WNW 12.7 mph 17.3 mph N/A   Overcast
5:15 PM 5.0 °F -13.6 °F -4.0 °F 66% 29.97 in 7.0 mi NW 16.1 mph 19.6 mph N/A   Overcast
6:35 PM 3.2 °F -13.1 °F -4.0 °F 72% 29.99 in 10.0 mi WNW 11.5 mph 16.1 mph N/A   Clear
6:55 PM 3.2 °F -12.2 °F -4.0 °F 72% 30.00 in 10.0 mi WNW 10.4 mph - N/A   Clear
7:15 PM 3.2 °F -13.1 °F -4.0 °F 72% 30.00 in 10.0 mi WNW 11.5 mph - N/A   Clear
7:35 PM 3.2 °F -12.2 °F -4.0 °F 72% 30.00 in 10.0 mi WNW 10.4 mph 16.1 mph N/A   Clear
7:55 PM 3.2 °F -13.1 °F -4.0 °F 72% 30.00 in 10.0 mi WNW 11.5 mph 16.1 mph N/A   Clear
8:15 PM 3.2 °F -12.2 °F -4.0 °F 72% 30.01 in 10.0 mi WNW 10.4 mph - N/A   Clear
8:35 PM 3.2 °F -10.3 °F -2.2 °F 78% 30.02 in 10.0 mi WNW 8.1 mph - N/A   Clear
8:55 PM 3.2 °F -12.2 °F -2.2 °F 78% 30.03 in 10.0 mi WNW 10.4 mph - N/A   Clear
9:15 PM 3.2 °F -10.3 °F -2.2 °F 78% 30.03 in 10.0 mi WNW 8.1 mph - N/A   Clear
9:35 PM 3.2 °F -13.9 °F -0.4 °F 85% 30.04 in 10.0 mi WNW 12.7 mph 17.3 mph N/A   Clear
9:55 PM 5.0 °F -10.0 °F -0.4 °F 78% 30.04 in 10.0 mi NW 10.4 mph 17.3 mph N/A   Clear
10:15 PM 5.0 °F -10.0 °F -0.4 °F 78% 30.05 in 10.0 mi WNW 10.4 mph - N/A   Clear
10:35 PM 5.0 °F -10.0 °F -0.4 °F 78% 30.07 in 10.0 mi WNW 10.4 mph 16.1 mph N/A   Clear
10:55 PM 5.0 °F -9.1 °F -0.4 °F 78% 30.07 in 10.0 mi NW 9.2 mph 17.3 mph N/A   Clear
11:15 PM 5.0 °F -9.1 °F -0.4 °F 78% 30.07 in 10.0 mi WNW 9.2 mph 16.1 mph N/A   Clear
11:35 PM 5.0 °F -10.8 °F -0.4 °F 78% 30.09 in 10.0 mi WNW 11.5 mph 17.3 mph N/A   Clear